GW6499 Weather Reports


time (UTC)temp
C
wind
direction
speed
KPH
gust
KPH
rain 1hr
cm
rain 24hr
cm
rain mn
cm
humidity
%
barometer
mb
20260906225513 30 142 0.0 14.5 0.00 0.00 0.00 33 1018.1
20260906225012 30 124 0.0 14.5 0.00 0.00 0.00 33 1018.1
20260906224527 30 105 3.2 12.9 0.00 0.00 0.00 33 1018.2
20260906224021 30 51 1.6 14.5 0.00 0.00 0.00 33 1018.1
20260906223524 30 65 0.0 14.5 0.00 0.00 0.00 33 1018.2
20260906223032 30 59 6.4 14.5 0.00 0.00 0.00 32 1018.2
20260906222503 30 66 0.0 24.1 0.00 0.00 0.00 32 1018.2
20260906222016 30 53 4.8 24.1 0.00 0.00 0.00 32 1018.4
20260906221509 30 15 4.8 19.3 0.00 0.00 0.00 32 1018.5
20260906221010 31 38 8.0 19.3 0.00 0.00 0.00 31 1018.6
20260906220510 31 55 4.8 14.5 0.00 0.00 0.00 31 1018.6
20260906220017 30 338 0.0 9.7 0.00 0.00 0.00 32 1018.6
20260906215516 30 336 3.2 14.5 0.00 0.00 0.00 32 1018.7
20260906215010 30 104 3.2 14.5 0.00 0.00 0.00 32 1018.8
20260906214524 30 140 1.6 9.7 0.00 0.00 0.00 32 1018.8
20260906214013 30 30 0.0 9.7 0.00 0.00 0.00 32 1019.0
20260906213516 30 53 3.2 16.1 0.00 0.00 0.00 33 1019.0
20260906213030 30 15 1.6 17.7 0.00 0.00 0.00 33 1019.1
20260906212518 30 51 6.4 17.7 0.00 0.00 0.00 33 1019.2
20260906212018 30 76 4.8 14.5 0.00 0.00 0.00 33 1019.3
20260906211532 30 47 4.8 17.7 0.00 0.00 0.00 34 1019.2
20260906211008 29 15 6.4 17.7 0.00 0.00 0.00 34 1019.4
20260906210510 30 71 4.8 16.1 0.00 0.00 0.00 33 1019.5
20260906210010 30 44 3.2 12.9 0.00 0.00 0.00 34 1019.6
20260906205510 29 77 4.8 14.5 0.00 0.00 0.00 34 1019.8
20260906205011 29 22 6.4 14.5 0.00 0.00 0.00 34 1019.9
20260906204521 28 46 6.4 17.7 0.00 0.00 0.00 35 1019.9
20260906204012 28 39 8.0 17.7 0.00 0.00 0.00 35 1020.0
20260906203515 28 22 11.3 17.7 0.00 0.00 0.00 35 1020.0
20260906203028 28 5 4.8 17.7 0.00 0.00 0.00 35 1020.0
20260906202513 28 25 9.7 20.9 0.00 0.00 0.00 35 1020.0
20260906202016 28 34 3.2 20.9 0.00 0.00 0.00 35 1020.1
20260906201528 28 30 1.6 16.1 0.00 0.00 0.00 35 1020.1
20260906201016 29 57 6.4 16.1 0.00 0.00 0.00 35 1020.2
20260906200515 28 69 3.2 16.1 0.00 0.00 0.00 36 1020.1
20260906200031 28 42 3.2 16.1 0.00 0.00 0.00 36 1020.2
20260906195510 28 77 3.2 11.3 0.00 0.00 0.00 36 1020.3
20260906195007 28 109 1.6 17.7 0.00 0.00 0.00 37 1020.2
20260906194520 28 130 6.4 17.7 0.00 0.00 0.00 37 1020.3
20260906194013 28 96 1.6 14.5 0.00 0.00 0.00 37 1020.4
20260906193512 27 132 3.2 14.5 0.00 0.00 0.00 38 1020.4
20260906193024 28 64 4.8 14.5 0.00 0.00 0.00 38 1020.5
20260906192514 27 74 3.2 17.7 0.00 0.00 0.00 38 1020.6
20260906192015 27 37 3.2 17.7 0.00 0.00 0.00 39 1020.6
20260906191527 27 21 0.0 17.7 0.00 0.00 0.00 38 1020.8
20260906191020 27 53 8.0 17.7 0.00 0.00 0.00 39 1020.8
20260906190515 27 45 4.8 16.1 0.00 0.00 0.00 39 1020.9
20260906190032 27 48 4.8 16.1 0.00 0.00 0.00 39 1021.0
20260906185515 27 77 0.0 12.9 0.00 0.00 0.00 40 1021.1
20260906185018 27 65 3.2 12.9 0.00 0.00 0.00 40 1021.1
20260906184535 26 44 0.0 12.9 0.00 0.00 0.00 41 1021.3
20260906184010 26 120 0.0 14.5 0.00 0.00 0.00 41 1021.4
20260906183512 26 88 1.6 14.5 0.00 0.00 0.00 41 1021.5
20260906183028 26 44 0.0 12.9 0.00 0.00 0.00 42 1021.6
20260906182502 26 65 3.2 12.9 0.00 0.00 0.00 42 1021.7
20260906182004 26 94 1.6 14.5 0.00 0.00 0.00 43 1021.8
20260906181504 26 38 4.8 14.5 0.00 0.00 0.00 43 1021.9
20260906181003 26 97 0.0 9.7 0.00 0.00 0.00 44 1021.9
20260906180504 25 86 0.0 14.5 0.00 0.00 0.00 45 1022.0
20260906180005 25 44 1.6 14.5 0.00 0.00 0.00 46 1022.1
20260906175505 25 82 1.6 14.5 0.00 0.00 0.00 46 1022.2
20260906175006 25 66 1.6 12.9 0.00 0.00 0.00 47 1022.3
20260906174509 25 51 1.6 12.9 0.00 0.00 0.00 48 1022.4
20260906174008 25 59 1.6 11.3 0.00 0.00 0.00 47 1022.5
20260906173510 25 97 1.6 11.3 0.00 0.00 0.00 47 1022.5
20260906173016 25 97 4.8 9.7 0.00 0.00 0.00 46 1022.7
20260906172511 25 107 0.0 9.7 0.00 0.00 0.00 47 1022.8
20260906172011 25 106 0.0 9.7 0.00 0.00 0.00 49 1022.9
20260906171523 25 101 0.0 8.0 0.00 0.00 0.00 50 1022.9
20260906171003 24 59 0.0 11.3 0.00 0.00 0.00 52 1022.9
20260906170505 23 55 0.0 14.5 0.00 0.00 0.00 52 1023.1
20260906170006 23 54 4.8 14.5 0.00 0.00 0.00 52 1023.1
20260906165504 23 94 0.0 6.4 0.00 0.00 0.00 51 1023.2
20260906165003 23 94 0.0 6.4 0.00 0.00 0.00 52 1023.3
20260906164506 23 92 0.0 9.7 0.00 0.00 0.00 53 1023.3
20260906164004 23 94 3.2 9.7 0.00 0.00 0.00 53 1023.3
20260906163506 23 109 0.0 9.7 0.00 0.00 0.00 54 1023.3
20260906163017 23 109 0.0 12.9 0.00 0.00 0.00 55 1023.2
20260906162511 23 133 0.0 12.9 0.00 0.00 0.00 55 1023.2
20260906162011 22 117 0.0 8.0 0.00 0.00 0.00 56 1023.1
20260906161516 22 119 0.0 9.7 0.00 0.00 0.00 56 1023.1
20260906161011 22 121 0.0 9.7 0.00 0.00 0.00 56 1023.1
20260906160514 22 109 0.0 9.7 0.00 0.00 0.00 57 1023.1
20260906160024 22 80 1.6 8.0 0.00 0.00 0.00 57 1023.1
20260906155505 22 84 0.0 4.8 0.00 0.00 0.00 58 1023.1
20260906155003 22 84 0.0 9.7 0.00 0.00 0.00 57 1023.1
20260906154504 22 79 0.0 9.7 0.00 0.00 0.00 57 1023.1
20260906154004 22 67 1.6 8.0 0.00 0.00 0.00 57 1023.1
20260906153504 22 57 1.6 8.0 0.00 0.00 0.00 57 1022.9
20260906153013 22 69 1.6 6.4 0.00 0.00 0.00 55 1023.0
20260906152506 22 65 0.0 1.6 0.00 0.00 0.00 53 1023.0
20260906152007 22 5 0.0 0.0 0.00 0.00 0.00 55 1023.0
20260906151518 22 5 0.0 0.0 0.00 0.00 0.00 54 1023.1
20260906151013 21 5 0.0 0.0 0.00 0.00 0.00 55 1023.0
20260906150511 21 338 0.0 0.0 0.00 0.00 0.00 55 1023.1
20260906150019 21 338 0.0 0.0 0.00 0.00 0.00 54 1023.1
20260906145513 21 337 0.0 0.0 0.00 0.00 0.00 55 1023.1
20260906145012 21 338 0.0 0.0 0.00 0.00 0.00 55 1023.1
20260906144526 21 338 0.0 0.0 0.00 0.00 0.00 56 1023.1
20260906144003 21 315 0.0 0.0 0.00 0.00 0.00 57 1023.1
20260906143504 21 315 0.0 0.0 0.00 0.00 0.00 57 1023.2
20260906143012 20 313 0.0 0.0 0.00 0.00 0.00 59 1023.1
20260906142503 20 360 0.0 0.0 0.00 0.00 0.00 60 1023.1
20260906142009 20 360 0.0 1.6 0.00 0.00 0.00 62 1023.1
20260906141521 19 360 0.0 1.6 0.00 0.00 0.00 63 1023.1
20260906141009 19 360 0.0 0.0 0.00 0.00 0.00 63 1023.2
20260906140509 19 287 0.0 0.0 0.00 0.00 0.00 64 1023.3
20260906140017 18 288 0.0 0.0 0.00 0.00 0.00 64 1023.3
20260906135510 18 360 0.0 0.0 0.00 0.00 0.00 66 1023.4
20260906135012 18 360 0.0 0.0 0.00 0.00 0.00 67 1023.3
20260906134527 18 360 0.0 0.0 0.00 0.00 0.00 67 1023.3
20260906134013 17 360 0.0 0.0 0.00 0.00 0.00 66 1023.3
20260906133518 17 360 0.0 0.0 0.00 0.00 0.00 65 1023.1
20260906133027 17 360 0.0 0.0 0.00 0.00 0.00 65 1023.0
20260906132504 17 360 0.0 0.0 0.00 0.00 0.00 66 1022.9
20260906132004 17 360 0.0 0.0 0.00 0.00 0.00 66 1022.8
20260906131508 16 304 0.0 0.0 0.00 0.00 0.00 67 1022.9
20260906131006 16 360 0.0 0.0 0.00 0.00 0.00 69 1022.9
20260906130508 16 360 0.0 0.0 0.00 0.00 0.00 70 1022.9
20260906130011 16 360 0.0 0.0 0.00 0.00 0.00 70 1022.7
20260906125511 16 360 0.0 0.0 0.00 0.00 0.00 71 1022.7
20260906125010 16 360 0.0 0.0 0.00 0.00 0.00 70 1022.6
20260906124519 16 360 0.0 0.0 0.00 0.00 0.00 69 1022.7
20260906124012 16 360 0.0 0.0 0.00 0.00 0.00 70 1022.5
20260906123515 16 360 0.0 0.0 0.00 0.00 0.00 70 1022.5
20260906123035 16 360 0.0 0.0 0.00 0.00 0.00 70 1022.5
20260906122516 16 360 0.0 0.0 0.00 0.00 0.00 70 1022.5
20260906122016 16 360 0.0 0.0 0.00 0.00 0.00 70 1022.5
20260906121533 16 360 0.0 0.0 0.00 0.00 0.00 70 1022.6
20260906121017 16 360 0.0 0.0 0.00 0.00 0.00 70 1022.5
20260906120509 16 360 0.0 0.0 0.00 0.00 0.00 70 1022.5
20260906120013 16 360 0.0 0.0 0.00 0.00 0.00 71 1022.6
20260906115508 16 360 0.0 0.0 0.00 0.00 0.00 71 1022.5
20260906115010 16 360 0.0 0.0 0.00 0.00 0.00 71 1022.5
20260906114521 16 360 0.0 0.0 0.00 0.00 0.00 73 1022.6
20260906114010 16 360 0.0 0.0 0.00 0.00 0.00 73 1022.6
20260906113512 17 360 0.0 0.0 0.00 0.00 0.00 74 1022.6
20260906113025 17 360 0.0 6.4 0.00 0.00 0.00 74 1022.7
20260906112513 17 5 0.0 8.0 0.00 0.00 0.00 74 1022.7
20260906112014 17 5 1.6 8.0 0.00 0.00 0.00 73 1022.6
20260906111528 17 351 1.6 8.0 0.00 0.00 0.00 72 1022.3
20260906111015 17 346 0.0 6.4 0.00 0.00 0.00 69 1022.3
20260906110522 17 338 0.0 6.4 0.00 0.00 0.00 67 1022.4
20260906110034 17 360 0.0 0.0 0.00 0.00 0.00 61 1022.3
20260906105518 17 302 0.0 0.0 0.00 0.00 0.00 58 1022.2
20260906105010 18 333 0.0 0.0 0.00 0.00 0.00 57 1022.3
20260906104513 18 360 0.0 0.0 0.00 0.00 0.00 56 1022.3
20260906104008 18 360 0.0 0.0 0.00 0.00 0.00 56 1022.3
20260906103512 18 360 0.0 0.0 0.00 0.00 0.00 55 1022.2
20260906103040 18 360 0.0 0.0 0.00 0.00 0.00 55 1022.1
20260906102516 18 360 0.0 0.0 0.00 0.00 0.00 55 1022.1
20260906102012 18 360 0.0 0.0 0.00 0.00 0.00 55 1022.0
20260906101527 18 9 0.0 0.0 0.00 0.00 0.00 54 1022.1
20260906101016 18 9 0.0 0.0 0.00 0.00 0.00 54 1022.0
20260906100517 18 11 0.0 0.0 0.00 0.00 0.00 53 1022.1
20260906100034 19 15 0.0 0.0 0.00 0.00 0.00 52 1022.1
20260906095517 19 14 0.0 0.0 0.00 0.00 0.00 52 1022.1
20260906095017 19 15 0.0 0.0 0.00 0.00 0.00 51 1022.1
20260906094531 19 15 0.0 0.0 0.00 0.00 0.00 51 1022.2
20260906094018 20 14 0.0 0.0 0.00 0.00 0.00 51 1022.2
20260906093508 20 14 0.0 0.0 0.00 0.00 0.00 51 1022.2
20260906093016 20 15 0.0 0.0 0.00 0.00 0.00 50 1022.2
20260906092511 20 15 0.0 0.0 0.00 0.00 0.00 50 1022.2
20260906092014 20 15 0.0 0.0 0.00 0.00 0.00 50 1022.2
20260906091524 20 348 0.0 0.0 0.00 0.00 0.00 48 1022.1
20260906091015 20 335 0.0 0.0 0.00 0.00 0.00 47 1022.0
20260906090517 20 336 0.0 0.0 0.00 0.00 0.00 47 1022.0
20260906090029 20 336 0.0 0.0 0.00 0.00 0.00 47 1022.0
20260906085516 20 360 0.0 0.0 0.00 0.00 0.00 47 1022.0
20260906085018 21 318 0.0 0.0 0.00 0.00 0.00 47 1021.9
20260906084532 21 360 0.0 0.0 0.00 0.00 0.00 46 1021.9
20260906084020 21 360 0.0 0.0 0.00 0.00 0.00 46 1021.9
20260906083519 21 360 0.0 8.0 0.00 0.00 0.00 45 1021.9
20260906083034 21 360 0.0 8.0 0.00 0.00 0.00 45 1021.9
20260906082521 21 360 0.0 12.9 0.00 0.00 0.00 45 1021.9
20260906082012 21 272 0.0 12.9 0.00 0.00 0.00 46 1021.9
20260906081518 21 360 3.2 12.9 0.00 0.00 0.00 46 1021.9
20260906081014 21 268 0.0 6.4 0.00 0.00 0.00 47 1021.9
20260906080514 21 269 0.0 4.8 0.00 0.00 0.00 47 1021.8
20260906080029 21 360 0.0 6.4 0.00 0.00 0.00 47 1021.7
20260906075515 21 360 0.0 12.9 0.00 0.00 0.00 47 1021.9
20260906075015 21 360 0.0 12.9 0.00 0.00 0.00 47 1021.7
20260906074528 21 360 4.8 12.9 0.00 0.00 0.00 47 1021.8
20260906074016 21 360 3.2 14.5 0.00 0.00 0.00 47 1021.7
20260906073523 21 360 3.2 14.5 0.00 0.00 0.00 46 1021.7
20260906073035 21 360 6.4 14.5 0.00 0.00 0.00 46 1021.7
20260906072519 21 360 4.8 14.5 0.00 0.00 0.00 45 1021.6
20260906072020 21 360 4.8 16.1 0.00 0.00 0.00 45 1021.6
20260906071535 21 285 1.6 17.7 0.00 0.00 0.00 45 1021.6
20260906071018 21 360 8.0 17.7 0.00 0.00 0.00 44 1021.7
20260906070513 22 248 6.4 14.5 0.00 0.00 0.00 44 1021.6
20260906070022 22 273 3.2 19.3 0.00 0.00 0.00 44 1021.6
20260906065517 22 360 4.8 19.3 0.00 0.00 0.00 44 1021.7
20260906065015 22 290 3.2 14.5 0.00 0.00 0.00 44 1021.6
20260906064535 22 271 3.2 14.5 0.00 0.00 0.00 44 1021.7
20260906064017 22 266 1.6 11.3 0.00 0.00 0.00 44 1021.8
20260906063519 21 275 0.0 8.0 0.00 0.00 0.00 44 1021.9
20260906063032 21 277 1.6 8.0 0.00 0.00 0.00 44 1021.9
20260906062518 21 360 1.6 9.7 0.00 0.00 0.00 44 1022.0
20260906062018 22 277 0.0 9.7 0.00 0.00 0.00 44 1022.0
20260906061535 22 273 0.0 11.3 0.00 0.00 0.00 44 1022.0
20260906061016 22 270 1.6 11.3 0.00 0.00 0.00 44 1022.1
20260906060513 22 284 0.0 9.7 0.00 0.00 0.00 44 1022.1
20260906060018 22 360 1.6 12.9 0.00 0.00 0.00 44 1022.1
20260906055516 22 360 0.0 16.1 0.00 0.00 0.00 45 1022.3
20260906055011 22 252 3.2 16.1 0.00 0.00 0.00 46 1022.2
20260906054534 21 266 4.8 17.7 0.00 0.00 0.00 47 1022.2
20260906054019 21 252 4.8 17.7 0.00 0.00 0.00 47 1022.3
20260906053520 22 215 1.6 12.9 0.00 0.00 0.00 47 1022.5
20260906053006 22 249 1.6 14.5 0.00 0.00 0.00 47 1022.5
20260906052504 22 267 0.0 14.5 0.00 0.00 0.00 47 1022.5
20260906052007 22 229 3.2 14.5 0.00 0.00 0.00 46 1022.5
20260906051512 23 226 1.6 14.5 0.00 0.00 0.00 45 1022.4
20260906051009 23 319 3.2 17.7 0.00 0.00 0.00 43 1022.7
20260906050514 23 255 1.6 17.7 0.00 0.00 0.00 43 1022.7
20260906050016 23 200 1.6 16.1 0.00 0.00 0.00 42 1022.5
20260906045512 23 207 3.2 19.3 0.00 0.00 0.00 41 1022.7
20260906045013 23 228 3.2 19.3 0.00 0.00 0.00 40 1022.8
20260906044523 24 202 3.2 24.1 0.00 0.00 0.00 39 1022.9
20260906044011 24 188 9.7 25.7 0.00 0.00 0.00 38 1022.9
20260906043517 25 182 8.0 25.7 0.00 0.00 0.00 34 1022.9
20260906043028 25 198 1.6 11.3 0.00 0.00 0.00 35 1022.9
20260906042513 25 183 1.6 9.7 0.00 0.00 0.00 35 1022.8
20260906042018 25 180 0.0 1.6 0.00 0.00 0.00 34 1022.7
20260906041506 25 360 0.0 12.9 0.00 0.00 0.00 33 1022.3
20260906041008 25 360 0.0 22.5 0.00 0.00 0.00 33 1021.9
20260906040506 25 249 8.0 22.5 0.00 0.00 0.00 33 1021.7
20260906040012 25 269 1.6 17.7 0.00 0.00 0.00 32 1021.6
20260906035511 25 360 6.4 17.7 0.00 0.00 0.00 32 1021.6
20260906035011 25 360 4.8 16.1 0.00 0.00 0.00 32 1021.3
20260906034516 25 360 3.2 12.9 0.00 0.00 0.00 32 1021.3
20260906034011 25 360 3.2 12.9 0.00 0.00 0.00 32 1021.2
20260906033514 25 278 0.0 4.8 0.00 0.00 0.00 31 1021.1
20260906033027 25 272 0.0 9.7 0.00 0.00 0.00 31 1021.1
20260906032515 25 272 0.0 9.7 0.00 0.00 0.00 31 1021.1
20260906032019 25 360 0.0 6.4 0.00 0.00 0.00 31 1021.1
20260906031530 25 277 0.0 8.0 0.00 0.00 0.00 31 1021.1
20260906031018 25 276 1.6 8.0 0.00 0.00 0.00 31 1021.1
20260906030516 25 275 0.0 4.8 0.00 0.00 0.00 31 1021.1
20260906030012 25 273 0.0 4.8 0.00 0.00 0.00 31 1021.0
20260906025508 25 275 0.0 1.6 0.00 0.00 0.00 31 1020.9
20260906025008 25 275 0.0 1.6 0.00 0.00 0.00 30 1020.8
20260906024518 25 275 0.0 3.2 0.00 0.00 0.00 30 1020.8
20260906024008 25 360 0.0 4.8 0.00 0.00 0.00 30 1020.6
20260906023512 25 272 0.0 6.4 0.00 0.00 0.00 30 1020.6
20260906023022 25 269 0.0 6.4 0.00 0.00 0.00 30 1020.5
20260906022514 25 269 0.0 4.8 0.00 0.00 0.00 30 1020.5
20260906022017 26 292 0.0 4.8 0.00 0.00 0.00 30 1020.5
20260906021538 26 360 0.0 4.8 0.00 0.00 0.00 29 1020.4
20260906021014 26 360 0.0 4.8 0.00 0.00 0.00 29 1020.4
20260906020520 26 360 0.0 8.0 0.00 0.00 0.00 29 1020.4
20260906020030 26 293 0.0 8.0 0.00 0.00 0.00 28 1020.3
20260906015516 26 360 0.0 14.5 0.00 0.00 0.00 28 1020.3
20260906015016 27 286 0.0 14.5 0.00 0.00 0.00 28 1020.4
20260906014514 27 360 4.8 14.5 0.00 0.00 0.00 28 1020.3
20260906014007 27 360 3.2 12.9 0.00 0.00 0.00 28 1020.3
20260906013510 27 360 4.8 14.5 0.00 0.00 0.00 28 1020.2
20260906013031 27 310 4.8 14.5 0.00 0.00 0.00 27 1020.2
20260906012514 27 360 3.2 17.7 0.00 0.00 0.00 27 1020.2
20260906012012 27 360 6.4 17.7 0.00 0.00 0.00 27 1020.2
20260906011526 27 360 9.7 16.1 0.00 0.00 0.00 27 1020.2
20260906011016 28 352 3.2 17.7 0.00 0.00 0.00 27 1020.1
20260906010514 28 17 1.6 17.7 0.00 0.00 0.00 26 1020.1
20260906010028 28 355 1.6 9.7 0.00 0.00 0.00 26 1020.1
20260906005517 28 19 1.6 6.4 0.00 0.00 0.00 26 1020.1
20260906005017 29 36 0.0 4.8 0.00 0.00 0.00 25 1020.2
20260906004530 29 36 0.0 0.0 0.00 0.00 0.00 24 1020.1
20260906004017 29 36 0.0 0.0 0.00 0.00 0.00 24 1020.1
20260906003518 29 36 0.0 0.0 0.00 0.00 0.00 24 1020.2
20260906003020 29 36 0.0 6.4 0.00 0.00 0.00 24 1020.2
20260906002510 30 36 0.0 6.4 0.00 0.00 0.00 23 1020.1
20260906002012 30 38 1.6 6.4 0.00 0.00 0.00 23 1020.1
20260906001520 30 30 1.6 6.4 0.00 0.00 0.00 23 1020.0
20260906001014 30 32 0.0 9.7 0.00 0.00 0.00 23 1020.1
20260906000514 31 21 3.2 9.7 0.00 0.00 0.00 22 1020.1
20260906000026 31 27 1.6 8.0 0.00 0.00 0.00 22 1020.0
20260905235515 31 11 0.0 6.4 0.00 0.00 0.00 21 1020.0
20260905235017 31 216 0.0 4.8 0.00 0.00 0.00 21 1020.0
20260905234529 32 216 0.0 6.4 0.00 0.00 0.00 20 1019.9
20260905234016 32 216 1.6 6.4 0.00 0.00 0.00 21 1019.9
20260905233520 32 217 0.0 6.4 0.00 0.00 0.00 20 1019.8
20260905233033 32 217 1.6 6.4 0.00 0.00 0.00 20 1020.0
20260905232520 32 217 0.0 4.8 0.00 0.00 0.00 20 1019.9
20260905232018 32 218 0.0 4.8 0.00 0.00 0.00 20 1019.9
20260905231516 32 217 0.0 4.8 0.00 0.00 0.00 20 1019.9
20260905231011 32 212 0.0 4.8 0.00 0.00 0.00 20 1019.8
20260905230513 32 212 0.0 4.8 0.00 0.00 0.00 20 1019.8
20260905230023 31 156 0.0 8.0 0.00 0.00 0.00 21 1019.9